Regional Weather Roundup
Issued by NWS Upton, NY

Current Version | Previous Version | Graphics & Text | Print | Product List | Glossary Off
Versions: 1 2 3 4 5 6 7 8 9 10 11 12 13 14 15 16 17 18 19 20 21 22 23 24 25 26 27

000
ASUS41 KOKX 021004
RWROKX

REGIONAL WEATHER ROUNDUP
NATIONAL WEATHER SERVICE NEW YORK NY
600 AM EDT MON MAY 02 2016

NOTE: "FAIR" INDICATES FEW OR NO CLOUDS BELOW 12,000 FEET WITH NO
SIGNIFICANT WEATHER AND/OR OBSTRUCTIONS TO VISIBILITY.

NYZ071-072-176-178-NJZ106-104-021100-
NEW YORK CITY METRO AREA


CITY           SKY/WX    TMP DP  RH WIND       PRES   REMARKS
CENTRAL PARK   CLOUDY    46  43  89 VRB5      30.04R FOG
LAGUARDIA APRT CLOUDY    46  43  89 N7        30.00F FOG
KENNEDY INTL   CLOUDY    46  44  93 NE8       30.01S FOG
NEWARK/LIBERTY CLOUDY    45  43  93 N9        30.01R FOG
BRNX BOT. GARD   N/A     45  43  93 NE1       30.01R
TETERBORO      CLOUDY    45  42  89 N5        30.00S FOG
$$

NYZ177-179-078>081-021100-
LONG ISLAND NEW YORK

CITY           SKY/WX    TMP DP  RH WIND       PRES   REMARKS
FARMINGDALE    CLOUDY    46  45  96 NE7       30.00F
ISLIP          CLOUDY    46  44  93 NE8       30.00F FOG
SHIRLEY        CLOUDY    46  45  96 VRB5      30.01S FOG
RIVERHEAD        N/A     46  45  93 NE2       30.01F
WESTHAMPTON    CLOUDY    45  45 100 NE7       30.01S FOG
EAST HAMPTON   CLOUDY    46  45  97 N6        30.01R FOG
MONTAUK POINT    N/A     46  46 100 NE5       30.01S
$$

NYZ052-065-067-021100-
HUDSON VALLEY

CITY           SKY/WX    TMP DP  RH WIND       PRES   REMARKS
WHITE PLAINS   DRIZZLE   44  43  96 NE5       30.00F FOG
NEWBURGH       CLOUDY    43  43 100 NE7       30.01S FOG
MONTGOMERY     CLOUDY    44  43  96 NE3       30.00S
POUGHKEEPSIE   CLOUDY    45  42  89 E3        30.01S
ALBANY         CLOUDY    45  40  82 S7        30.01F
$$

NJZ001-105-106-008-010-013-015-019>022-104-021100-
NEW JERSEY

CITY           SKY/WX    TMP DP  RH WIND       PRES   REMARKS
NEWARK/LIBERTY CLOUDY    45  43  93 N9        30.01R FOG
TETERBORO      CLOUDY    45  42  89 N5        30.00S FOG
CALDWELL       CLOUDY    45  42  89 E3        30.01S
MORRISTOWN     CLOUDY    45  43  93 NE5       30.00F FOG
SOMERVILLE     CLOUDY    46  44  93 CALM      29.98F
SUSSEX         CLOUDY    45  42  89 N3        30.00S FOG
ANDOVER          N/A     45  43  93 CALM      29.99F
TRENTON        CLOUDY    46  44  93 E7        29.98F FOG
MILLVILLE      CLOUDY    48  47  96 E5        29.98S FOG
ATLANTIC CITY  FOG       48  48 100 E6        29.98F VSB 1
WRIGHTSTOWN    CLOUDY    46  45  93 NE6       29.97F
TOMS RIVER     CLOUDY    46  43  87 NE3       30.00F
BELMAR         CLOUDY    46  46 100 E3        30.02R FOG
$$

PAZ047>061-062-071-021100-
EASTERN PENNSYLVANIA

CITY           SKY/WX    TMP DP  RH WIND       PRES   REMARKS
PHILADELPHIA   CLOUDY    48  45  89 E8        30.00R
ALLENTOWN      FOG       47  45  93 E7        29.97F VSB 3/4
SCRANTON       CLOUDY    48  44  86 CALM      29.93F
$$

CTZ002-004>006-009-010-012-RIZ004-006-007-MAZ004-011-015-021100-
SOUTHERN NEW ENGLAND
 IN CT

CITY           SKY/WX    TMP DP  RH WIND       PRES   REMARKS
BRADLEY INTL   CLOUDY    42  40  92 N5        30.03F
HARTFORD       LGT RAIN  45  42  89 N6        30.04F FOG
DANBURY        CLOUDY    42  41  96 NE3       30.01F FOG
WTRBRY/OXFORD    N/A     41  37  87 NE7       30.03S VSB 3/4
BRIDGEPORT     CLOUDY    45  43  93 NE10      30.01F
MERIDEN        CLOUDY    44  41  89 NE7       30.03S
NEW HAVEN      CLOUDY    43  42  97 N9        30.01F FOG
CHESTER        CLOUDY    43  43 100 N7        30.02R FOG
GROTON         CLOUDY    45  45 100 N7        30.01R
WILLIMANTIC    CLOUDY    45  42  89 N6        30.03S

 IN RI

CITY           SKY/WX    TMP DP  RH WIND       PRES   REMARKS
PROVIDENCE     CLOUDY    45  43  93 N8        30.03S FOG
BLOCK ISLAND   CLOUDY    47  46  97 N6        30.02R FOG
WESTERLY       CLOUDY    46  43  89 N7        30.01S FOG

 IN MA

CITY           SKY/WX    TMP DP  RH WIND       PRES   REMARKS
BOSTON         DRIZZLE   46  45  96 NE10      30.06S
WORCESTER      FOG       39  39 100 NE7       30.03R VSB 1/4 WCI  34
WESTFIELD      CLOUDY    41  39  93 N7        30.04S
PROVINCETOWN   CLOUDY    46  46 100 E8        30.04R FOG
NANTUCKET      CLOUDY    51  49  92 E10       29.97F FOG
$$

ANZ330-335-338-340-345-350-353-355-021100-
COASTAL MARINE OBSERVATIONS


STATION/POSITION TIME  SKY/WX   TEMP    WIND        PRES    VSBY  WAVE
                                AIR SEA DIR/SP/G                  HT/PER
                 (UTC)          (F)     (DEG/KT/KT) (MB)    (MI)  (FT/S)
NY HARB ENTRANCE 0850            48 50   40/  8/ 10 1015.6          5/11
20S FIRE ISLAND  0850            47 48   40/ 10/ 12 1015.5          5/10
GREAT SOUTH BAY  0915            47 55   40/  8/ 10   N/A
23 SSW MONTAUK P 0950            47 47   20/ 10/ 12 1015.5          5/10
15 E BARNEGAT LI 0922               51                N/A           6/11
HUDSON CANYON    0850            48 48              1014.9          6/11
KINGS POINT      0900            45 53              1016.0
EXECUTION ROCKS  NOT AVBL
CENTRAL LI SOUND 0900            46      20/  8/ 10   N/A           1/ 3
EASTERN LI SOUND 0900            46 47   10/ 10/ 14   N/A
ROBBINS REEF     0906            46      60/  8/ 10 1015.4
$$


>>>>>>>>>>>>>>>>>>>>>>>>>>>> KEY <<<<<<<<<<<<<<<<<<<<<<<<<<<
>                                                          <
>     SKY/WX - SKY CONDITION/PRESENT WEATHER               <
>     TMP    - TEMPERATURE IN FAHRENHEIT                   <
>     DP     - DEWPOINT IN FAHRENHEIT                      <
>     RH     - RELATIVE HUMIDITY IN PERCENT                <
>     WIND   - DIRECTION AND SPEED IN MPH                  <
>     PRES   - MEAN SEA LEVEL PRESSURE IN INCHES OF HG     <
>     WCI    - WIND CHILL INDEX                            <
>     VSB    - VISIBILITY IN MILES                         <
>     HX     - HEAT INDEX                                  <
>     TC     - TEMPERATURE IN CELSIUS                      <
>     VRB    - VARIABLE WIND DIRECTION                     <
>                                                          <
>>>>>>>>>>>>>>>>>>>>>>>>>>>> KEY <<<<<<<<<<<<<<<<<<<<<<<<<<<






USA.gov is the U.S. government's official web portal to all federal, state and local government web resources and services.